Regional Weather Roundup
Issued by NWS

Home | Current Version | Previous Version | Graphics & Text | Print | Product List | Glossary On
Versions: 1 2 3 4 5 6 7 8 9 10 11 12 13 14 15 16 17 18 19 20 21 22 23 24 25 26 27 28 29 30 31 32 33 34 35 36 37 38 39 40 41 42 43 44 45 46 47 48 49 50
000
ASUS43 KOAX 221002
RWRNE

WEATHER ROUNDUP FOR NEBRASKA
NATIONAL WEATHER SERVICE OMAHA NE
500 AM CDT SUN OCT 22 2017

NOTES: SATELLITE DATA IS BEING USED TO AUGMENT CLOUD COVER ABOVE
       12000 FEET.
       "FAIR" INDICATES FEW OR NO CLOUDS BELOW 12,000 FEET WITH NO
       SIGNIFICANT WEATHER AND/OR OBSTRUCTIONS TO VISIBILITY.


NEZ001>004-019>022-054>056-221100-
NEBRASKA PANHANDLE

CITY           SKY/WX    TMP DP  RH WIND       PRES   REMARKS
SCOTTSBLUFF    CLEAR     40  18  41 CALM      30.07F
ALLIANCE       CLEAR     24  16  71 W6        30.05F HAZE    WCI  17
CHADRON        CLEAR     28  14  55 CALM      30.02F
GORDON         FAIR      28  19  71 W3        30.03S
KIMBALL        CLEAR     33  20  59 W8        30.10F WCI  25
SIDNEY         CLEAR     22  16  78 SW9       30.12S WCI  12
$$

NEZ057>060-069>072-079>082-221100-
SOUTHWEST NEBRASKA

CITY           SKY/WX    TMP DP  RH WIND       PRES   REMARKS
NORTH PLATTE   CLEAR     26  23  88 NW6       30.10S WCI  19
IMPERIAL       CLEAR     42  21  43 NW12      30.12R
LEXINGTON      CLEAR     32  27  81 CALM      30.11R
MCCOOK         CLEAR     32  24  72 SW9       30.14R WCI  24
OGALLALA       CLEAR     32  24  71 CALM      30.10S
$$

NEZ005>010-023>029-035>040-094-221100-
NORTH CENTRAL NEBRASKA

CITY           SKY/WX    TMP DP  RH WIND       PRES   REMARKS
VALENTINE      CLEAR     31  27  85 W6        30.03F WCI  25
AINSWORTH      CLEAR     34  29  83 SW5       30.03S WCI  30
BROKEN BOW     CLEAR     27  24  89 CALM      30.07R
O`NEILL        CLEAR     36  31  82 W7        30.04R WCI  30
ORD            CLEAR     30  28  92 NW3       30.06R
THEDFORD       CLEAR     34  26  72 SW8       30.06R WCI  28
$$

NEZ041-046>049-061>064-073>077-083>087-221100-
SOUTH CENTRAL NEBRASKA

CITY           SKY/WX    TMP DP  RH WIND       PRES   REMARKS
GRAND ISLAND   CLEAR     35  33  92 SW7       30.09R WCI  29
AURORA         CLEAR     36  34  93 W6        30.08R WCI  31
HASTINGS       CLEAR     38  31  76 SW5       30.11R WCI  34
HEBRON         PTCLDY    40  37  88 W3        30.10R
HOLDREGE       CLEAR     35  27  73 CALM      30.10R
KEARNEY        CLEAR     35  28  75 SW5       30.11R WCI  31
YORK           PTCLDY    37  37 100 W8        30.07R WCI  31
$$

NEZ011>018-030>034-042>045-221100-
NORTHEAST NEBRASKA

CITY           SKY/WX    TMP DP  RH WIND       PRES   REMARKS
NORFOLK        CLEAR     37  31  78 W3        30.02S
ALBION         PTCLDY    30  28  92 NW3       30.06R
BLAIR          PTCLDY    46  40  80 W3        30.01S
COLUMBUS       CLEAR     38  34  85 SW3       30.06R
FREMONT        CLEAR     39  38  94 W6        30.04R
TEKAMAH        PTCLDY    40  37  89 W5        30.01F
WAYNE          CLEAR     35  32  91 S3        30.02R
$$

NEZ050>053-065>068-078-088>093-221100-
SOUTHEAST NEBRASKA

CITY           SKY/WX    TMP DP  RH WIND       PRES   REMARKS
LINCOLN        CLEAR     45  38  76 CALM      30.06R
OMAHA EPPLEY   MOCLDY    46  39  76 NW5       30.02R
BEATRICE       CLEAR     43  40  89 W3        30.07R
FALLS CITY     CLOUDY    49  42  77 NW8       30.03R
NEBRASKA CITY  CLOUDY    47  42  82 W3        30.03R
PLATTSMOUTH    CLOUDY    47  42  84 W7        30.03R
$$

NEZ044-045-051>053-067-221100-
OMAHA AREA

CITY           SKY/WX    TMP DP  RH WIND       PRES   REMARKS
OMAHA EPPLEY   MOCLDY    46  39  76 NW5       30.02R
BLAIR          PTCLDY    46  40  80 W3        30.01S
FREMONT        CLEAR     39  38  94 W6        30.04R
MILLARD        PTCLDY    46  43  90 CALM      30.03R
OFFUTT AFB     PTCLDY    47  40  75 CALM      30.03R
PLATTSMOUTH    CLOUDY    47  42  84 W7        30.03R
WAHOO          FAIR      44  37  77 CALM      30.04R
$$




USA.gov is the U.S. government's official web portal to all federal, state and local government web resources and services.